User: anonymous   Login
Location: Unspecified
(0.0000°N, 0.0000°E)
Time: 07:35:53
(UTC+00:00)
Language:

FALCON 9 R/B - Orbit

View from above orbital plane
View from above orbital plane
View from above satellite
View from above satellite

Ground track
Ground track

The orbit data is extracted from the following two-line orbital elements,

1 41590U 16038C   21292.22211499 -.00000383  00000-0  77178-3 0  9991
2 41590  23.9656 319.2740 8179182  49.8729 356.9505  1.18369161 23052
Epoch (UTC): 19 October 2021 05:19:50
Eccentricity: 0.8179182
inclination: 23.9656°
perigee height: 495 km
apogee height: 62246 km
right ascension of ascending node: 319.2740°
argument of perigee: 49.8729°
revolutions per day: 1.18369161
mean anomaly at epoch: 356.9505°
orbit number at epoch: 2305

The dashed part of the orbit path shows where the satellite is in the earth's shadow,  

DLR